(90482) Orcus
ephemeris date magn radius delta ra dec elong phase
Today1 Jul 202519.148.007 AU48.386 AU10h34m-12°32'67.5°1.1°
Opposition7 Mar 202619.047.993 AU47.062 AU10h39m-13°49'159.4°0.4°
(90482) Orcus - 2025-07-01
astro.vanbuitenen.nl


 
-1 year
-1 month
-1 day
Now
+1 day
+1 month
+1 year

The interactive orbit chart above shows the body's path through the solar system and its position at the given date. Green and blue lines are shown perpendicular to the ecliptic plane: Green if the path is above the ecliptic plane, blue if it is below. (Left-click and drag to rotate the view; Right-click and drag to move the view; Use scroll wheel to zoom in our out.)

The orbital elements of Orcus are:

            e (Eccentricity)                : 0.2231446
            a (Semimajor axis)              : 39.2890646
            i (Inclination)                 : 20.55553
            Ω (Longitude of ascending node) : 268.38604
            ω (Argument of perihelion)      : 73.79654
            M (Mean anomaly)                : 187.21828
            Epoch                           : 2025 May 05

            L (Longitude of perihelion)     : 341.14422
            B (Latitude of perihelion)      : 19.70440
            P (Orbital period in years)     : 246.27            
        

The light curve chart below shows the estimated development of the minor planet's magnitude.


The all-sky chart below shows the path of the minor planet over the same period as the light curve. The current position is marked yellow.





The following chart shows the path of the minor planet in the next few days. The field of view is optimized for (~10x50) binoculars and finderscopes. A more printer-friendly version of the same chart can be found below.




Ephemerides:
Date       Time       RA (2000)    DEC (2000)    delta   radius  elong  phase   PA    magn
2025-07-01 00:00 UT   10 34 03.8   -12 32 57    48.386   48.007   67.5    1.1   122   19.1 
2025-07-01 00:48 UT   10 34 03.9   -12 32 57    48.386   48.007   67.5    1.1   122   19.1 
2025-07-02 00:00 UT   10 34 06.8   -12 32 53    48.400   48.007   66.7    1.1   122   19.1 
2025-07-03 00:00 UT   10 34 09.9   -12 32 49    48.415   48.007   65.8    1.1   123   19.1 
2025-07-04 00:00 UT   10 34 13.1   -12 32 46    48.429   48.007   64.9    1.1   123   19.1 
2025-07-05 00:00 UT   10 34 16.3   -12 32 43    48.443   48.007   64.1    1.1   123   19.1 
2025-07-06 00:00 UT   10 34 19.6   -12 32 41    48.457   48.006   63.2    1.1   124   19.1 
2025-07-07 00:00 UT   10 34 22.9   -12 32 39    48.470   48.006   62.3    1.1   124   19.1 
2025-07-08 00:00 UT   10 34 26.3   -12 32 38    48.484   48.006   61.4    1.1   125   19.1 
2025-07-09 00:00 UT   10 34 29.8   -12 32 38    48.498   48.006   60.6    1.1   125   19.1 
2025-07-10 00:00 UT   10 34 33.3   -12 32 38    48.511   48.006   59.7    1.0   125   19.1 
2025-07-11 00:00 UT   10 34 36.9   -12 32 39    48.524   48.006   58.8    1.0   126   19.1 
2025-07-12 00:00 UT   10 34 40.5   -12 32 41    48.537   48.006   58.0    1.0   126   19.1 
2025-07-13 00:00 UT   10 34 44.2   -12 32 43    48.550   48.006   57.1    1.0   127   19.1 
2025-07-14 00:00 UT   10 34 47.9   -12 32 45    48.563   48.006   56.3    1.0   127   19.1 
2025-07-15 00:00 UT   10 34 51.7   -12 32 49    48.576   48.006   55.4    1.0   128   19.1 
2025-07-16 00:00 UT   10 34 55.5   -12 32 53    48.588   48.006   54.6    1.0   128   19.1 
2025-07-17 00:00 UT   10 34 59.4   -12 32 57    48.601   48.006   53.7    1.0   129   19.1 
2025-07-18 00:00 UT   10 35 03.4   -12 33 02    48.613   48.006   52.9    1.0   129   19.1 
2025-07-19 00:00 UT   10 35 07.4   -12 33 08    48.625   48.006   52.0    1.0   130   19.1 
2025-07-20 00:00 UT   10 35 11.4   -12 33 14    48.636   48.006   51.2    0.9   130   19.1 
2025-07-21 00:00 UT   10 35 15.5   -12 33 21    48.648   48.006   50.3    0.9   131   19.1 
2025-07-22 00:00 UT   10 35 19.7   -12 33 29    48.660   48.006   49.5    0.9   131   19.1 
2025-07-23 00:00 UT   10 35 23.8   -12 33 37    48.671   48.006   48.6    0.9   132   19.1 
2025-07-24 00:00 UT   10 35 28.1   -12 33 46    48.682   48.005   47.8    0.9   132   19.1 
2025-07-25 00:00 UT   10 35 32.3   -12 33 55    48.693   48.005   47.0    0.9   133   19.1 
2025-07-26 00:00 UT   10 35 36.7   -12 34 05    48.704   48.005   46.1    0.9   134   19.1 
2025-07-27 00:00 UT   10 35 41.0   -12 34 15    48.714   48.005   45.3    0.9   134   19.1 
2025-07-28 00:00 UT   10 35 45.4   -12 34 26    48.724   48.005   44.5    0.8   135   19.1 
2025-07-29 00:00 UT   10 35 49.8   -12 34 38    48.735   48.005   43.7    0.8   135   19.1 
2025-07-30 00:00 UT   10 35 54.3   -12 34 51    48.745   48.005   42.8    0.8   136   19.1 
2025-07-31 00:00 UT   10 35 58.8   -12 35 03    48.754   48.005   42.0    0.8   137   19.1 


    Terminology:
            
    delta:  distance between minor planet and earth in AU
    radius: distance between minor planet and sun in AU
    magn:   magnitude (brightness) estimate    
    ra:     right ascension in hours (24h = 360deg)
    dec:    declination in degrees
    elong:  elongation in degrees (angle sun-earth-minor planet)    
    phase:  phase angle in degrees (angle sun-minor planet-earth)        
    AU:     Astronomical Unit (mean distance between earth and sun: 149597870.7 km
    

Orbital elements provided by the MPC (Minor Planet Center).
Calculations by a modified version of AAPlus, a C# implementation of the AA+ project by PJ Naughter from the algorithms presented in the book "Astronomical Algorithms" by Jean Meeus.
NGC2000 dso catalog and star labels from VizieR as provided by the Strasbourg astronomical Data Center.
Tycho2 catalog from the ESO archive.